This is the latest recevied weather packets stored in our database for station/object IN3XSV. If no packets are shown the sender has not sent any weather packets the latest 10 day(s).
| Time | Temp. | Humidity | Pressure | Rain* | Wind** | Luminosity | Snow |
|---|---|---|---|---|---|---|---|
| 1777029579 | 20.56° C | 27% | 1009.7 hPa | 0 mm | - | - | - |
| 1777029548 | 20.56° C | 27% | 1009.7 hPa | 0 mm | - | - | - |
| 1777029279 | 20.56° C | 28% | 1009.7 hPa | 0 mm | - | - | - |
| 1777029248 | 20.56° C | 28% | 1009.7 hPa | 0 mm | - | - | - |
| 1777028948 | 20.56° C | 29% | 1009.8 hPa | 0 mm | - | - | - |
| 1777028648 | 20° C | 27% | 1009.9 hPa | 0 mm | - | - | - |
| 1777028348 | 20° C | 27% | 1010 hPa | 0 mm | - | - | - |
| 1777028048 | 20° C | 30% | 1010 hPa | 0 mm | - | - | - |
| 1777027748 | 20.56° C | 32% | 1010.2 hPa | 0 mm | - | - | - |
| 1777027448 | 20° C | 34% | 1010.3 hPa | 0 mm | - | - | - |
| 1777027148 | 19.44° C | 33% | 1010.3 hPa | 0 mm | - | - | - |
| 1777026848 | 18.89° C | 34% | 1010.3 hPa | 0 mm | - | - | - |
| 1777026548 | 18.89° C | 35% | 1010.4 hPa | 0 mm | - | - | - |
| 1777026248 | 18.89° C | 33% | 1010.5 hPa | 0 mm | - | - | - |
| 1777025948 | 18.89° C | 35% | 1010.7 hPa | 0 mm | - | - | - |
| 1777025648 | 18.89° C | 33% | 1010.7 hPa | 0 mm | - | - | - |
| 1777025348 | 18.89° C | 34% | 1010.8 hPa | 0 mm | - | - | - |
| 1777025048 | 18.33° C | 34% | 1010.9 hPa | 0 mm | - | - | - |
| 1777024748 | 17.78° C | 33% | 1010.9 hPa | 0 mm | - | - | - |
| 1777024448 | 17.78° C | 31% | 1010.9 hPa | 0 mm | - | - | - |
| 1777024148 | 17.78° C | 33% | 1010.9 hPa | 0 mm | - | - | - |
| 1777023848 | 17.78° C | 33% | 1011.1 hPa | 0 mm | - | - | - |
| 1777023548 | 17.22° C | 36% | 1011.1 hPa | 0 mm | - | - | - |
| 1777023248 | 16.67° C | 34% | 1011.2 hPa | 0 mm | - | - | - |
| 1777022948 | 16.67° C | 36% | 1011.3 hPa | 0 mm | - | - | - |
* Rain latest hour (hover to see other rain measurements)
** Current wind speed in m/s (hover to see current wind gust speed)